Latest Coastal Weather Observations for Browse Island

IDD60701

Issued at 5:41 am CST Wednesday 4 May 2016 (issued every 10 minutes, with the page automatically refreshed every 10 minutes)

About coastal observations | Map of coastal stations | Coastal observations for NT | Marine services | Other Formats
Station Details ID: 200784 Name: BROWSE ISLAND Lat: -14.11 Lon: 123.55 Height: 3.7 m
Data from the previous 72 hours. | See also: Recent months at Browse Island
Date/Time
CST
Temp

°C
Wind Pressure Rain
since 9am
mm
Weather Cloud Vis
km
Sea
Height
m
Swell
Dir
 
Speed
knots
Gust
knots
hPa Trend Height
m
Period
s
Dir
04/05:30am 29.8 NE 11 14 1009.4 - - - - - - - - -
04/05:00am 29.8 ENE 12 15 1009.5 - - - - - - - - -
04/04:30am 29.7 ENE 12 15 1009.4 - - - - - - - - -
04/04:00am 29.7 NE 11 14 1009.5 - - - - - - - - -
04/03:30am 29.9 ENE 10 14 1009.8 - - - - - - - - -
04/03:00am 29.8 ENE 11 13 1010.1 - - - - - - - - -
04/02:30am 29.8 E 9 11 1010.3 - - - - - - - - -
04/02:00am 29.5 E 9 11 1010.7 - - - - - - - - -
04/01:30am 29.6 ENE 8 10 1010.7 - - - - - - - - -
04/01:00am 29.6 ENE 7 9 1010.9 - - - - - - - - -
04/12:30am 29.8 NE 7 8 1010.9 - - - - - - - - -
04/12:00am 29.9 ENE 7 9 1011.1 - - - - - - - - -
 
Date/Time
CST
Temp

°C
Wind Pressure Rain
since 9am
mm
Weather Cloud Vis
km
Sea
Height
m
Swell
Dir
 
Speed
knots
Gust
knots
hPa Trend Height
m
Period
s
Dir
03/11:30pm 29.8 ENE 7 8 1011.3 - - - - - - - - -
03/11:00pm 29.9 ENE 7 9 1011.2 - - - - - - - - -
03/10:30pm 30.6 E 8 9 1011.2 - - - - - - - - -
03/10:00pm 30.4 E 6 7 1011.0 - - - - - - - - -
03/09:30pm 30.5 ESE 6 7 1011.0 - - - - - - - - -
03/09:00pm 30.5 ESE 5 6 1010.7 - - - - - - - - -
03/08:30pm 30.5 ESE 5 6 1010.5 - - - - - - - - -
03/08:00pm 30.7 ESE 5 6 1010.3 - - - - - - - - -
03/07:30pm 30.7 SE 5 6 1009.7 - - - - - - - - -
03/07:00pm 30.7 SE 5 7 1009.3 - - - - - - - - -
03/06:30pm 30.9 SE 7 9 1009.2 - - - - - - - - -
03/06:00pm 31.1 SSE 6 8 1008.7 - - - - - - - - -
03/05:30pm 31.5 SE 6 7 1008.5 - - - - - - - - -
03/05:00pm 31.4 SE 5 7 1008.5 - - - - - - - - -
03/04:30pm 31.7 SE 6 7 1008.6 - - - - - - - - -
03/04:00pm 31.5 SSE 5 7 1008.5 - - - - - - - - -
03/03:30pm 31.9 SE 5 6 1008.5 - - - - - - - - -
03/03:00pm 31.4 SE 6 8 1008.8 - - - - - - - - -
03/02:30pm 31.9 SE 6 8 1009.1 - - - - - - - - -
03/02:00pm 31.8 SSE 5 7 1009.8 - - - - - - - - -
03/01:30pm 31.6 SSE 5 7 1010.2 - - - - - - - - -
03/01:00pm 31.7 SE 6 7 1010.4 - - - - - - - - -
03/12:30pm 32.1 SE 5 7 1011.0 - - - - - - - - -
03/12:00pm 31.7 SSE 6 8 1011.4 - - - - - - - - -
03/11:30am 31.4 SE 6 8 1011.6 - - - - - - - - -
03/11:00am 31.2 SE 6 8 1011.9 - - - - - - - - -
03/10:30am 31.3 SSE 7 8 1011.9 - - - - - - - - -
03/10:00am 31.1 SSE 7 8 1011.8 - - - - - - - - -
03/09:30am 30.9 SE 7 8 1011.6 - - - - - - - - -
03/09:00am 30.6 SE 7 9 1011.4 - - - - - - - - -
03/08:30am 30.4 SE 7 9 1011.2 - - - - - - - - -
03/08:00am 30.1 SE 7 8 1010.8 - - - - - - - - -
03/07:30am 30.0 SSE 8 9 1010.4 - - - - - - - - -
03/07:00am 30.0 S 8 9 1010.0 - - - - - - - - -
03/06:30am 30.0 S 9 10 1009.8 - - - - - - - - -
03/06:00am 30.0 S 9 10 1009.7 - - - - - - - - -
03/05:30am 29.9 S 8 9 1009.7 - - - - - - - - -
03/05:00am 29.9 S 7 8 1009.7 - - - - - - - - -
03/04:30am 29.9 S 6 8 1009.8 - - - - - - - - -
03/04:00am 29.9 S 5 6 1010.1 - - - - - - - - -
03/03:30am 30.0 S 6 7 1010.2 - - - - - - - - -
03/03:00am 30.1 SSE 5 6 1010.5 - - - - - - - - -
03/02:30am 30.1 SSE 5 6 1010.6 - - - - - - - - -
03/02:00am 30.2 S 4 5 1010.9 - - - - - - - - -
03/01:30am 30.1 S 4 5 1011.2 - - - - - - - - -
03/01:00am 30.2 S 4 5 1011.4 - - - - - - - - -
03/12:30am 30.2 SSW 5 6 1011.7 - - - - - - - - -
03/12:00am 30.2 SSW 6 6 1011.9 - - - - - - - - -
 
Date/Time
CST
Temp

°C
Wind Pressure Rain
since 9am
mm
Weather Cloud Vis
km
Sea
Height
m
Swell
Dir
 
Speed
knots
Gust
knots
hPa Trend Height
m
Period
s
Dir
02/11:30pm 30.2 SW 5 6 1011.9 - - - - - - - - -
02/11:00pm 30.3 SW 5 7 1011.9 - - - - - - - - -
02/10:30pm 30.4 SW 6 7 1012.1 - - - - - - - - -
02/10:00pm 30.4 SW 7 8 1012.1 - - - - - - - - -
02/09:30pm 30.4 SW 7 8 1011.9 - - - - - - - - -
02/09:00pm 30.6 SW 7 8 1011.8 - - - - - - - - -
02/08:30pm 30.5 SSW 8 9 1011.5 - - - - - - - - -
02/08:00pm 30.7 SSW 8 9 1011.0 - - - - - - - - -
02/07:30pm 30.8 SSW 8 9 1010.6 - - - - - - - - -
02/07:00pm 30.7 S 8 9 1010.2 - - - - - - - - -
02/06:30pm 30.7 S 8 9 1009.9 - - - - - - - - -
02/06:00pm 30.9 S 8 10 1009.6 - - - - - - - - -
02/05:30pm 30.7 S 8 10 1009.2 - - - - - - - - -
02/05:00pm 30.7 SSW 8 9 1009.1 - - - - - - - - -
02/04:30pm 31.0 S 8 9 1009.2 - - - - - - - - -
02/04:00pm 31.1 S 9 11 1009.3 - - - - - - - - -
02/03:30pm 31.0 S 10 11 1009.6 - - - - - - - - -
02/03:00pm 30.8 S 9 11 1009.8 - - - - - - - - -
02/02:30pm 31.0 S 10 12 1010.0 - - - - - - - - -
02/02:00pm 30.5 S 11 12 1010.4 - - - - - - - - -
02/01:30pm 30.5 S 11 13 1010.8 - - - - - - - - -
02/01:00pm 30.7 SSW 11 13 1011.2 - - - - - - - - -
02/12:30pm 30.5 S 12 13 1011.7 - - - - - - - - -
02/12:00pm 30.5 SSW 11 12 1012.0 - - - - - - - - -
02/11:30am 30.6 S 11 13 1012.4 - - - - - - - - -
02/11:00am 30.2 SSW 11 13 1012.5 - - - - - - - - -
02/10:30am 30.3 S 10 12 1012.5 - - - - - - - - -
02/10:00am 30.1 SSW 10 13 1012.3 - - - - - - - - -
02/09:30am 29.9 SSW 10 11 1012.1 - - - - - - - - -
02/09:00am 30.1 SSW 10 11 1011.9 - - - - - - - - -
02/08:30am 30.0 SSW 9 11 1011.5 - - - - - - - - -
02/08:00am 29.9 SSW 10 12 1011.2 - - - - - - - - -
02/07:30am 29.9 SW 9 11 1010.7 - - - - - - - - -
02/07:00am 29.9 SW 9 11 1010.3 - - - - - - - - -
02/06:30am 29.7 SW 11 13 1010.1 - - - - - - - - -
02/06:00am 29.7 SSW 10 12 1009.9 - - - - - - - - -
02/05:30am 29.7 SSW 9 11 1009.7 - - - - - - - - -
02/05:00am 29.6 SSW 10 11 1009.7 - - - - - - - - -
02/04:30am 29.8 SSW 9 11 1009.7 - - - - - - - - -
02/04:00am 29.8 SSW 9 11 1009.7 - - - - - - - - -
02/03:30am 29.9 SW 9 11 1009.8 - - - - - - - - -
02/03:00am 29.9 SW 10 12 1009.9 - - - - - - - - -
02/02:30am 29.8 SW 10 13 1010.2 - - - - - - - - -
02/02:00am 29.7 SW 10 12 1010.4 - - - - - - - - -
02/01:30am 29.7 SW 8 9 1010.5 - - - - - - - - -
02/01:00am 29.8 SW 10 11 1010.6 - - - - - - - - -
02/12:30am 29.7 SW 9 11 1010.8 - - - - - - - - -
02/12:00am 29.9 SW 9 11 1010.8 - - - - - - - - -
 
Date/Time
CST
Temp

°C
Wind Pressure Rain
since 9am
mm
Weather Cloud Vis
km
Sea
Height
m
Swell
Dir
 
Speed
knots
Gust
knots
hPa Trend Height
m
Period
s
Dir
01/11:30pm 29.7 SSW 8 9 1011.1 - - - - - - - - -
01/11:00pm 29.7 SSW 8 9 1011.2 - - - - - - - - -
01/10:30pm 29.7 SSW 8 9 1011.7 - - - - - - - - -
01/10:00pm 30.0 SSW 7 9 1011.8 - - - - - - - - -
01/09:30pm 29.9 S 8 9 1011.7 - - - - - - - - -
01/09:00pm 29.9 S 10 11 1011.5 - - - - - - - - -
01/08:30pm 30.0 SSW 11 13 1011.1 - - - - - - - - -
01/08:00pm 30.0 SSW 10 11 1010.7 - - - - - - - - -
01/07:30pm 30.1 SSW 9 11 1010.5 - - - - - - - - -
01/07:00pm 30.2 S 9 11 1010.3 - - - - - - - - -
01/06:30pm 30.0 S 8 10 1010.0 - - - - - - - - -
01/06:00pm 30.1 S 9 11 1009.8 - - - - - - - - -
01/05:30pm 30.1 S 9 10 1009.7 - - - - - - - - -
01/05:00pm 29.9 S 9 11 1009.5 - - - - - - - - -
01/04:30pm 30.2 S 9 11 1009.2 - - - - - - - - -
01/04:00pm 30.0 S 9 11 1009.2 - - - - - - - - -
01/03:30pm 30.0 S 9 11 1009.5 - - - - - - - - -
01/03:00pm 30.7 S 9 11 1009.9 - - - - - - - - -
01/02:30pm 30.0 S 10 12 1010.1 - - - - - - - - -
01/02:00pm 30.0 S 10 13 1010.4 - - - - - - - - -
01/01:30pm 29.9 S 9 11 1010.9 - - - - - - - - -
01/01:00pm 30.1 S 9 11 1011.3 - - - - - - - - -
01/12:30pm 29.7 S 10 11 1011.8 - - - - - - - - -
01/12:00pm 29.8 S 9 11 1012.3 - - - - - - - - -
01/11:30am 30.0 S 8 10 1012.7 - - - - - - - - -
01/11:00am 29.9 S 7 10 1012.9 - - - - - - - - -
01/10:30am 29.6 S 8 9 1013.1 - - - - - - - - -
01/10:00am 29.5 S 9 10 1012.9 - - - - - - - - -
01/09:30am 29.4 SSW 8 10 1012.8 - - - - - - - - -
01/09:00am 29.4 SSW 10 12 1012.7 - - - - - - - - -
01/08:30am 29.3 SSW 9 11 1012.5 - - - - - - - - -
01/08:00am 29.2 SSW 8 10 1012.3 - - - - - - - - -
01/07:30am 29.2 SW 8 10 1012.0 - - - - - - - - -

Other Formats:

Comma delimited format used in spreadsheet applications
http://www.bom.gov.au/fwo/IDD60701/IDD60701.94103.axf

JavaScript Object Notation format (JSON) in row-major order
http://www.bom.gov.au/fwo/IDD60701/IDD60701.94103.json